Location: Toronto
(43.6672°N, 79.4170°W)
Time: 08:07:34
(UTC-05:00)

ISS - All Passes

Search period start: 27 November 2014 00:00
Search period end: 07 December 2014 00:00
Orbit: 407 x 417 km, 51.6° (Epoch: 27 November)

Date Brightness Start Highest point End Pass type
(mag) Time Alt. Az. Time Alt. Az. Time Alt. Az.
27 Nov - 00:19:11 10° WSW 00:22:24 54° NNW 00:25:39 10° NE night (unlit)
27 Nov - 01:56:58 10° WNW 01:59:34 21° N 02:02:11 10° NE night (unlit)
27 Nov - 03:34:13 10° NW 03:36:59 24° NNE 03:39:44 10° ENE visible
27 Nov - 05:10:41 10° WNW 05:14:00 82° NNE 05:17:17 10° ESE visible
27 Nov - 06:48:30 10° W 06:50:13 14° SW 06:51:55 10° SSW visible
27 Nov - 21:54:51 10° SSE 21:56:22 13° SE 21:57:53 10° ESE night (unlit)
27 Nov - 23:29:17 10° WSW 23:32:34 86° NNW 23:35:52 10° ENE night (unlit)
28 Nov - 01:06:47 10° WNW 01:09:33 24° NNW 01:12:20 10° NE night (unlit)
28 Nov - 02:44:22 10° NW 02:46:58 21° N 02:49:33 10° ENE night (unlit)
28 Nov - 04:20:54 10° NW 04:24:08 51° NNE 04:27:21 10° ESE visible
28 Nov - 05:57:54 10° W 06:00:35 23° SW 06:03:15 10° S visible
28 Nov - 22:39:32 10° SW 22:42:45 55° SE 22:45:59 10° ENE night (unlit)
29 Nov - 00:16:35 10° W 00:19:32 30° NNW 00:22:30 10° NE night (unlit)
29 Nov - 01:54:22 10° NW 01:56:53 20° N 01:59:24 10° NE night (unlit)
29 Nov - 03:31:07 10° NW 03:34:11 35° NNE 03:37:15 10° E night (unlit)
29 Nov - 05:07:45 10° WNW 05:10:52 40° SW 05:13:58 10° SSE visible
29 Nov - 21:50:01 10° SSW 21:52:58 31° SE 21:55:55 10° ENE night (unlit)
29 Nov - 23:26:24 10° W 23:29:32 41° NNW 23:32:41 10° NE night (unlit)
30 Nov - 01:04:15 10° NW 01:06:47 20° N 01:09:19 10° NE night (unlit)
30 Nov - 02:41:17 10° NW 02:44:09 27° NNE 02:47:02 10° ENE night (unlit)
30 Nov - 04:17:45 10° WNW 04:21:02 71° SW 04:24:19 10° SE visible
30 Nov - 21:00:53 10° S 21:03:13 18° SE 21:05:33 10° E night (unlit)
30 Nov - 22:36:17 10° WSW 22:39:33 63° NNW 22:42:50 10° NE night (unlit)
01 Dec - 00:14:00 10° WNW 00:16:39 22° N 00:19:19 10° NE night (unlit)
01 Dec - 01:51:22 10° NW 01:54:03 23° N 01:56:45 10° ENE night (unlit)
01 Dec - 03:27:50 10° NW 03:31:07 70° NNE 03:34:24 10° ESE night (unlit)
01 Dec - 05:05:16 10° W 05:07:25 16° SW 05:09:33 10° S visible
01 Dec - 20:12:57 10° SE 20:13:29 10° SE 20:14:02 10° ESE night (unlit)
01 Dec - 21:46:19 10° SW 21:49:36 79° SE 21:52:54 10° ENE night (unlit)
01 Dec - 23:23:41 10° WNW 23:26:31 26° NNW 23:29:21 10° NE night (unlit)
02 Dec - 01:01:20 10° NW 01:03:54 20° N 01:06:27 10° NE night (unlit)
02 Dec - 02:37:56 10° NW 02:41:07 44° NNE 02:44:17 10° E night (unlit)
02 Dec - 04:14:46 10° WNW 04:17:38 28° SW 04:20:29 10° SSE night (unlit)
02 Dec - 20:56:31 10° SW 20:59:40 44° SE 21:02:50 10° ENE night (unlit)
02 Dec - 22:33:21 10° W 22:36:23 33° NNW 22:39:25 10° NE night (unlit)
03 Dec - 00:11:11 10° NW 00:13:41 20° N 00:16:12 10° NE night (unlit)
03 Dec - 01:48:00 10° NW 01:51:01 32° NNE 01:54:01 10° E night (unlit)
03 Dec - 03:24:34 10° WNW 03:27:45 48° SW 03:30:56 10° SE night (unlit)
03 Dec - 20:07:00 10° SSW 20:09:47 25° SE 20:12:34 10° E night (unlit)
03 Dec - 21:43:04 10° WSW 21:46:16 47° NNW 21:49:28 10° NE night (unlit)
03 Dec - 23:20:53 10° WNW 23:23:27 21° N 23:26:01 10° NE night (unlit)
04 Dec - 00:58:02 10° NW 01:00:50 25° NNE 01:03:38 10° ENE night (unlit)
04 Dec - 02:34:29 10° WNW 02:37:47 85° SW 02:41:04 10° SE night (unlit)
04 Dec - 04:12:49 10° WSW 04:13:55 11° SW 04:15:01 10° SSW night (unlit)
04 Dec - 19:17:58 10° S 19:19:55 15° SE 19:21:53 10° E visible
04 Dec - 20:52:53 10° WSW 20:56:10 75° NNW 20:59:28 10° NE night (unlit)
04 Dec - 22:30:29 10° WNW 22:33:12 23° NNW 22:35:55 10° NE night (unlit)
05 Dec - 00:07:57 10° NW 00:10:36 22° N 00:13:13 10° ENE night (unlit)
05 Dec - 01:44:27 10° NW 01:47:42 58° NNE 01:50:57 10° ESE night (unlit)
05 Dec - 03:21:36 10° W 03:24:05 20° SW 03:26:32 10° S night (unlit)
05 Dec - 20:02:51 10° SW 20:06:06 64° SE 20:09:22 10° ENE visible
05 Dec - 21:40:02 10° W 21:42:56 28° NNW 21:45:51 10° NE night (unlit)
05 Dec - 23:17:46 10° NW 23:20:18 20° N 23:22:49 10° NE night (unlit)
06 Dec - 00:54:25 10° NW 00:57:33 39° NNE 01:00:39 10° E night (unlit)
06 Dec - 02:31:07 10° WNW 02:34:08 34° SW 02:37:09 10° SSE night (unlit)
06 Dec - 19:13:01 10° SSW 19:16:04 36° SE 19:19:08 10° ENE visible
06 Dec - 20:49:35 10° W 20:52:41 37° NNW 20:55:48 10° NE night (unlit)
06 Dec - 22:27:26 10° NW 22:29:57 20° N 22:32:28 10° NE night (unlit)
